Location: Bieg
(49.3499°N, 10.3835°E)
Time: 11:17:07
(UTC+00:00)

MOZ.5/SAFIR/RUBIN 5/SL-8 - Pass Details

Date: 23 May 2024
Orbit: 671 x 700 km, 98.3° (Epoch: 24 June)

Event Time Altitude Azimuth Distance (km) Brightness Sun altitude
Exits shadow 01:18:36 24° 204° (SSW) 1,434 4.8 -14.8°
Maximum altitude 01:21:03 43° 261° (W) 981 4.3 -14.6°
Drops below altitude 10° 01:25:34 10° 334° (NNW) 2,160 6.8 -14.3°
Sets 01:27:55 0° 341° (NNW) 3,077 7.7 -14.0°
